COSMOS 2499 DEB, 49927

Orbit data source: Space-Track

COSMOS 2499 DEB, 49927 is space debris in LEO originally from a launch on Fri, 23 May 2014 UTC launched from the Plesetsk Missile And Space Complex (PKMTR). Debris objects in space refer to the collection of defunct objects orbiting the Earth. Examples of debris include non-operational satellites, rocket bodies, and fragments generated from explosions, collisions, or faulty payload assembly.

Loading next visibility...
Identifier
49927, 2014-028J
Orbit
LEO
Country
Flag of CISCIS
Related business
Manufacturer
TsNIIKhM
Mission
Spacecraft
Bus & Motor
Unknown
Mass
Unknown
Launch date (UTC)
2014-05-23 (12 years ago)
Launch vehicle
Unknown
Launch site
Plesetsk Missile And Space Complex (PKMTR)
Object type
Payload
Rocket body
Debris
Shape & HBR
Unknown shape, 0.1 m
Radar Cross Section
Small (<0.1 m²)

Expand to show TLE details & history
Last TLE update: 2 weeks ago

TLE from 2 weeks ago
0 COSMOS 2499 DEB
1 49927U 14028J   25340.33849816  .00003276  00000-0  96153-2 0  9996
2 49927  82.4831  11.6136 0289942  25.7602 335.7625 12.95042900193098
Epoch: 2025-12-06T08:07Z
TLE epoch observation values (Epoch: 2025-12-06T08:07:26.241Z)
Latitude
-0°
Longitude
174.3866°
Altitude
1,082.932 km
Speed
7.406 km/s
True Right ascension
00h 46m 27s
True Declination
0° 00' 00"
Sunlit
Object was in daylight at epoch
Visualization orbit readout
Latitude
Unknown
Longitude
Unknown
Altitude
Unknown
Speed
Unknown
Apparent Right ascension
Unknown
Apparent Declination
Unknown
Sunlit
N/A
Visualization observer readout
Local Sidereal Time
22:20:22
Azimuth
Unknown
Elevation
Unknown
Doppler factor
Unknown
Orbital elements
Apogee altitude
1,500.857 km
Perigee altitude
1,056.841 km
Semi-major axis
7,656.986 km
Eccentricity
0.02899
Inclination
82.4831°
RAAN
11.6136°
Arg. of periapsis
25.7602°
True anomaly
334.35214°
Mean anomaly
335.7625°
Eccentric anomaly
335.06206°
Mean motion
3.23934 °/min
Orbital period
111.13 mins
BSTAR
0.0096153
Loading maneuver chart data...
Computing Atmospheric mass density...
Loading historical data...
Loading historical data...
Loading historical data...
Loading historical data...
Loading historical data...
Loading historical data...
Loading historical data...

Documentation

Showing up to 5 results
|